Regional Weather Roundup
Issued by NWS Goodland, KS

Home | Current Version | Previous Version | Text Only | Print | Product List | Glossary Off
Versions: 1 2 3 4 5 6 7 8 9 10 11 12 13 14 15 16 17 18 19 20 21 22 23 24 25 26 27 28 29 30 31 32 33 34 35 36 37 38 39 40 41 42 43 44 45 46 47 48 49 50

000
ASUS43 KGLD 071508
RWRGLD

GOODLAND FORECAST AREA HOURLY WEATHER ROUNDUP
NATIONAL WEATHER SERVICE GOODLAND KS
800 AM MST WED DEC 07 2016

...OFFICIAL OBSERVATIONS...

CITY           SKY/WX    TMP DP  RH WIND       PRES   REMARKS
GOODLAND KS    LGT SNOW  14  10  85 NE17      30.18R VSB 3/4 WCI  -3
HILL CITY KS   NOT AVBL
IMPERIAL NEB   NOT AVBL
MCCOOK NEB     NOT AVBL
AKRON CO       NOT AVBL
BURLINGTON CO  LGT SNOW  16  10  79 NE16      30.14R WCI   0
LIMON CO       NOT AVBL
$$

...UNOFFICIAL OBSERVATIONS...

CITY           SKY/WX    TMP DP  RH WIND       PRES   REMARKS
COLBY KS       LGT SNOW  16  12  86 N16       30.24R WCI   0
LENORA KS        N/A     15  32 100 MISG        N/A
NORTON KS      LGT SNOW  16  10  79 N10       30.29R WCI   3
SHARON SPRINGS   N/A     16  13  87 NE15        N/A  WCI   1
TRENTON NEB      N/A     12  32 100 CALM        N/A
KIT CARSON CO    N/A     15  10  80 MISG        N/A
$$




USA.gov is the U.S. government's official web portal to all federal, state and local government web resources and services.